GFSFLT2_850_thetae_156.txt.gz
Theta_e
337 336 336 335 335 335 335 335 335 336 336 336 336 336 336 335 335 336 337 336 336 336 335 335 335 334 333 333 331 327 328 335
339 337 337 337 337 337 337 337 337 337 338 338 338 338 338 337 337 336 336 336 336 335 335 336 336 335 335 335 335 334 332 336
337 337 337 335 333 333 335 336 337 338 338 338 338 338 337 337 337 338 338 337 337 338 337 337 336 335 335 335 335 336 339 340
334 334 334 333 333 332 332 333 334 337 338 337 337 336 336 336 334 333 333 334 333 333 334 334 333 337 338 337 337 338 339 339
332 333 332 329 325 323 325 325 326 335 336 336 335 334 331 329 330 331 332 332 332 332 333 332 333 332 331 332 333 334 338 340
327 322 318 316 316 316 315 316 319 322 328 331 331 331 331 329 328 328 328 328 329 329 329 329 327 326 326 325 323 326 331 333
318 316 315 314 314 313 314 314 315 318 319 322 324 324 323 323 323 322 321 321 321 321 321 321 320 320 320 320 319 321 323 329
316 314 314 314 314 313 314 314 314 315 317 317 317 316 315 314 314 313 313 313 313 313 314 314 315 316 317 319 322 323 323 322
314 314 314 314 314 313 314 314 314 314 314 313 313 313 311 307 305 304 304 304 304 304 305 306 308 311 312 313 314 318 323 325
314 314 314 314 314 314 313 313 312 312 312 309 305 303 304 304 303 303 303 303 303 303 303 303 303 303 304 306 309 312 313 316
314 314 314 314 313 313 312 311 311 310 305 303 303 303 303 304 304 304 304 304 304 303 303 303 303 303 303 303 304 304 307 312
314 314 314 314 313 312 311 310 309 303 303 303 303 304 304 305 305 304 303 303 303 303 303 303 303 303 303 303 303 304 307 313
314 314 313 313 312 311 310 309 303 303 303 303 304 304 304 305 303 302 302 302 302 302 303 303 303 303 305 306 308 313 314 314
313 312 312 311 310 309 308 306 302 302 303 304 303 304 304 303 302 302 302 302 302 302 302 302 302 301 303 307 309 311 309 310
311 311 311 310 310 309 307 303 302 302 303 303 303 304 303 302 301 301 301 302 302 301 301 301 301 301 301 302 306 308 304 308
310 310 310 310 309 308 305 303 303 302 303 303 303 303 303 301 300 300 300 301 300 300 300 300 300 299 299 299 300 299 301 304
309 310 309 309 308 305 303 303 302 302 303 303 303 303 301 300 299 298 298 298 297 297 296 297 298 298 297 297 298 300 298 298
309 308 306 304 303 302 301 301 301 302 303 302 302 301 299 298 297 296 295 295 293 293 293 293 295 296 296 295 295 295 295 296
308 304 302 301 301 301 301 301 301 301 301 301 300 298 297 296 295 294 293 292 292 291 291 291 292 293 294 293 293 293 293 293
305 303 301 301 300 301 301 300 301 301 301 300 298 297 295 294 294 292 291 291 290 290 289 289 290 290 291 291 291 291 291 291

GFSFLT2_850_thetae_159.txt.gz
Theta_e
338 334 334 334 334 334 334 334 334 334 335 335 336 336 336 336 336 336 336 337 337 336 336 335 335 335 335 334 334 333 330 334
340 336 336 336 336 336 336 337 337 337 338 338 338 338 338 338 337 337 337 336 336 336 335 335 335 335 335 335 335 334 334 336
339 338 337 337 337 337 337 338 338 339 339 339 338 339 341 337 337 336 337 337 337 337 337 337 336 335 337 336 336 336 339 339
338 338 336 334 332 333 335 336 337 338 338 340 335 338 337 335 334 333 333 333 333 333 333 333 334 336 337 336 337 339 339 339
336 335 334 335 333 333 329 327 325 329 336 336 335 333 332 330 330 329 331 332 331 331 331 332 332 330 334 334 335 337 337 338
339 336 336 333 328 329 321 318 318 318 323 329 330 329 329 330 328 326 325 324 324 325 326 327 326 326 326 328 329 331 334 334
334 333 326 320 322 317 315 315 316 315 316 319 323 323 324 323 321 320 318 318 318 318 318 318 318 318 319 319 324 327 328 328
328 323 318 316 316 314 313 313 315 315 315 315 317 316 315 314 313 312 310 308 307 307 307 308 309 310 311 313 314 315 322 326
324 318 315 315 314 314 313 313 313 313 313 313 313 313 311 306 304 304 304 304 304 304 304 304 305 306 305 308 307 312 315 318
322 318 315 315 314 314 313 313 313 312 312 311 310 306 304 304 304 304 304 305 305 304 305 305 305 305 306 305 306 307 310 313
321 317 316 315 314 313 312 312 311 311 309 305 304 304 304 304 305 305 306 305 304 303 303 304 305 307 305 304 304 308 311 311
320 318 316 315 314 313 312 311 310 308 304 304 304 304 305 306 306 305 304 303 303 302 302 303 306 306 304 308 311 310 312 315
319 318 315 314 313 312 310 309 307 303 303 304 304 305 305 306 305 304 303 302 302 302 302 303 307 304 307 306 311 314 316 316
319 317 315 315 314 313 311 308 306 304 303 304 304 305 305 305 304 303 302 302 302 302 302 302 306 304 304 308 311 313 312 312
318 317 316 315 314 311 309 307 303 303 303 303 304 304 305 304 303 302 301 301 301 301 300 300 303 304 303 304 307 310 306 310
317 316 315 314 312 310 308 306 306 306 305 303 304 304 304 303 302 301 300 300 299 299 298 297 298 302 302 302 303 303 305 306
316 315 314 312 310 310 309 307 307 305 303 302 302 303 303 301 300 299 298 297 296 295 294 294 296 299 300 300 301 303 302 301
314 314 313 311 311 310 309 307 305 304 303 303 302 303 302 301 299 298 296 295 294 293 293 293 293 295 296 297 298 298 298 299
312 312 311 310 309 308 307 306 304 304 303 302 301 300 300 299 298 297 295 294 293 292 292 292 292 292 294 295 296 296 295 296
310 310 309 307 306 305 305 303 303 302 301 301 300 300 298 298 297 295 294 293 292 291 291 291 291 292 292 293 294 294 294 294

GFSFLT2_850_thetae_162.txt.gz
Theta_e
334 333 334 334 334 334 334 334 333 333 334 334 335 335 335 335 336 336 336 336 337 337 336 336 336 335 335 335 335 334 334 332
334 333 333 334 333 334 334 334 335 335 336 336 336 337 337 337 337 337 337 337 337 336 336 336 336 336 336 336 335 335 335 334
339 335 335 336 336 336 336 337 337 338 338 338 338 338 337 336 336 335 334 334 334 335 334 335 333 333 336 337 336 335 335 336
346 340 338 337 337 337 337 338 337 336 336 336 336 336 336 335 334 332 331 330 330 332 332 332 333 334 335 335 335 336 336 336
348 343 340 337 333 334 335 335 334 335 337 336 335 335 333 331 330 329 327 328 329 330 330 330 331 332 332 332 334 334 334 335
346 343 340 337 334 333 331 326 319 319 329 334 331 331 329 329 328 326 325 324 322 321 321 322 323 322 323 323 324 323 324 332
338 340 339 337 331 330 324 321 318 316 318 325 325 326 325 325 323 320 318 316 315 314 313 313 312 313 313 313 314 317 319 320
340 339 337 332 328 322 317 315 314 313 313 315 317 317 316 316 315 313 309 306 305 305 305 305 306 306 306 307 308 308 309 313
334 332 327 323 321 317 314 313 313 312 313 314 314 313 312 310 306 305 305 305 305 306 306 305 305 305 305 306 306 306 308 310
329 326 322 319 316 315 314 313 312 312 311 312 311 308 306 305 305 305 306 306 306 306 305 305 305 305 305 305 305 305 306 309
327 323 320 318 317 315 313 313 312 311 311 310 306 305 305 305 306 306 306 306 305 305 304 303 303 304 304 303 305 307 310 311
325 322 320 318 315 314 313 312 311 310 309 306 304 304 305 306 306 306 305 304 304 304 303 303 305 303 303 304 305 310 314 317
323 321 320 317 315 313 312 311 309 308 305 304 304 304 305 306 305 305 305 304 303 303 302 302 304 302 303 304 313 313 316 316
322 320 318 316 314 313 312 310 308 306 304 304 304 304 305 305 305 305 304 304 303 302 302 301 304 302 302 305 309 314 311 313
321 319 317 315 315 314 312 309 307 305 303 304 304 304 305 305 305 304 304 302 301 301 300 300 300 302 302 303 306 307 307 309
321 319 317 316 315 314 312 309 306 304 304 304 304 304 305 305 304 303 301 301 300 299 299 298 297 298 300 301 302 304 304 303
320 318 317 316 315 312 310 307 307 306 305 304 303 304 304 304 302 301 300 299 298 297 297 296 295 295 297 297 299 303 302 300
318 318 317 315 314 311 310 309 308 307 305 303 303 303 303 302 301 300 299 298 297 296 295 294 294 294 294 296 296 298 298 298
317 316 316 314 312 312 310 309 308 306 304 304 303 302 302 301 301 299 298 297 295 294 294 293 292 293 292 293 296 295 295 295
315 315 314 313 312 311 309 308 306 305 304 303 302 302 302 299 299 298 296 296 294 292 292 292 291 291 292 292 294 294 293 294

GFSFLT2_850_thetae_165.txt.gz
Theta_e
334 333 334 332 332 332 332 332 332 332 333 333 333 334 334 334 335 335 335 336 336 336 336 336 336 335 335 335 335 335 334 334
334 333 333 333 333 333 334 333 333 333 333 334 335 335 335 336 336 336 336 336 336 336 336 336 337 336 334 335 336 335 335 335
334 333 333 333 333 334 334 334 334 335 335 336 336 337 337 337 336 335 335 334 333 333 333 333 332 333 334 334 335 335 335 334
335 334 334 334 334 334 335 336 337 337 337 338 337 336 334 333 333 333 332 331 329 329 330 331 332 333 334 334 334 333 335 335
343 335 335 336 336 336 336 335 334 333 335 337 333 333 333 331 330 328 326 325 325 326 327 329 329 330 331 330 331 333 334 332
340 341 339 336 334 334 334 333 331 331 333 333 333 331 330 328 327 326 325 323 321 318 318 318 318 318 319 319 319 321 323 326
341 339 340 338 334 332 330 322 318 318 326 329 329 327 324 326 326 324 319 315 313 311 310 309 309 309 309 309 309 310 311 313
340 339 337 336 332 331 327 319 315 314 317 321 323 322 320 318 317 314 311 308 306 306 306 306 306 306 305 306 306 306 306 307
339 338 337 335 332 329 324 317 314 313 313 314 316 315 314 313 311 307 306 306 306 306 306 306 306 306 306 306 306 306 305 306
337 338 337 335 331 328 319 315 313 312 312 312 313 312 311 308 306 305 306 307 307 306 306 306 306 306 306 305 304 304 306 311
338 337 335 331 325 322 317 314 313 312 311 311 310 308 306 305 305 306 306 307 307 306 306 306 306 305 304 303 304 306 311 312
332 331 328 325 322 318 315 314 312 311 311 309 307 306 306 305 306 306 307 307 306 305 304 304 304 304 303 308 309 312 317 319
330 329 325 321 319 317 314 313 311 311 310 307 305 305 305 306 306 306 306 305 305 304 303 303 303 303 303 314 312 316 314 314
329 327 325 321 318 315 313 311 310 309 307 305 304 304 305 306 306 306 306 305 305 304 302 302 302 302 302 306 312 312 312 311
327 325 324 320 316 313 311 309 308 307 305 304 304 304 305 305 305 305 305 305 304 303 302 301 300 300 300 301 305 308 309 307
325 324 323 320 314 313 312 311 310 308 304 303 304 304 304 305 305 305 304 304 303 302 301 300 299 298 298 299 301 302 303 305
323 322 322 318 315 315 313 311 309 306 304 303 303 303 304 304 305 304 304 304 302 300 299 298 297 297 297 296 300 303 302 301
321 321 320 316 316 314 313 311 306 306 305 305 303 303 303 304 304 304 303 302 301 299 298 296 296 295 295 295 296 300 300 298
320 319 318 317 316 314 313 308 308 307 306 305 303 303 303 303 303 302 301 300 299 297 297 295 294 293 293 294 294 294 294 294
319 318 317 316 315 313 311 310 308 307 306 305 303 303 303 303 302 301 299 297 296 295 295 294 293 292 292 292 293 293 293 293

GFSFLT2_850_thetae_171.txt.gz
Theta_e
328 329 330 330 329 328 326 325 325 325 326 326 327 328 328 329 330 331 332 332 333 333 334 334 333 333 333 333 333 333 333 333
328 329 330 331 331 330 329 329 328 328 329 329 330 331 332 332 333 334 334 334 334 334 333 333 333 333 332 333 333 334 334 333
330 330 331 331 331 331 331 331 330 331 331 332 332 333 333 334 334 334 334 334 334 333 332 330 330 331 331 331 333 331 331 331
332 332 332 332 331 331 331 332 332 332 332 332 333 334 334 334 334 334 333 332 330 328 326 324 323 325 328 330 332 331 332 331
338 333 332 332 331 331 332 332 333 333 333 333 334 334 333 332 330 329 328 328 325 323 320 317 317 319 322 325 328 329 326 330
342 335 332 331 331 332 333 333 333 333 334 334 333 331 327 325 321 321 320 320 317 317 314 313 314 314 314 314 317 320 322 322
338 334 332 331 332 333 334 333 334 335 335 333 331 326 323 320 320 320 318 317 316 313 312 310 309 307 307 307 307 308 309 310
337 334 333 333 333 334 334 334 335 334 332 327 324 324 321 321 320 320 319 316 312 309 307 306 306 306 306 306 306 306 306 306
337 334 334 334 334 334 335 335 333 329 325 321 322 324 323 322 320 319 317 312 307 306 306 307 307 306 306 306 306 305 305 306
338 336 335 335 335 335 335 333 331 327 323 319 321 325 325 321 319 315 312 307 306 306 307 306 306 306 305 305 305 305 306 307
341 340 339 334 335 333 333 332 329 323 319 318 323 326 324 320 315 312 308 306 306 306 306 306 306 305 305 304 305 307 310 313
342 340 339 336 334 332 332 331 329 323 318 317 322 323 319 315 312 307 305 306 306 306 306 306 306 305 306 306 308 311 314 315
342 341 339 337 334 332 332 331 327 323 318 314 314 315 313 311 307 305 305 306 306 306 306 306 305 305 307 313 315 314 314 313
343 341 339 337 335 332 331 330 326 321 316 313 312 311 310 307 305 305 306 306 306 306 306 305 304 307 311 312 312 309 309 309
343 341 339 337 335 333 330 327 324 318 313 311 310 308 306 305 305 305 305 305 305 305 305 305 304 303 310 310 310 308 306 303
341 340 339 336 333 331 330 329 323 316 312 310 308 306 305 305 305 305 305 305 305 304 304 304 304 303 303 310 303 309 307 302
339 338 336 332 329 328 326 322 316 312 311 309 306 304 304 304 304 304 304 304 303 303 303 303 302 302 302 300 299 301 307 305
330 333 329 327 324 322 319 317 314 312 310 308 306 304 303 303 303 303 303 303 303 303 302 302 301 301 300 299 298 299 300 300
326 326 324 322 321 320 318 314 312 311 310 310 309 305 303 303 302 302 301 301 300 300 300 300 300 299 298 297 296 297 297 297
323 322 321 320 319 319 317 314 313 313 311 311 309 305 303 302 302 301 300 299 298 298 299 298 298 296 296 295 294 294 294 294

GFSFLT2_850_thetae_174.txt.gz
Theta_e
324 324 324 322 321 321 322 322 323 324 324 324 325 325 326 327 328 328 329 330 331 331 331 331 332 332 332 332 332 333 333 333
326 326 326 325 324 323 323 323 323 324 324 325 326 327 328 329 330 331 332 332 333 333 332 331 330 329 329 331 332 332 332 333
328 328 328 328 327 327 326 325 325 325 326 327 328 329 330 331 332 332 333 334 333 332 330 327 325 325 327 327 328 330 329 328
329 329 330 329 329 329 329 328 328 328 329 330 331 332 332 333 333 334 334 334 332 330 327 324 321 320 323 325 327 330 330 330
330 330 330 330 331 330 330 330 330 330 331 332 332 333 333 333 333 333 331 330 328 325 321 318 316 316 319 321 323 326 327 325
331 331 331 331 331 331 331 331 331 332 333 333 333 333 334 333 330 325 322 324 321 317 315 313 313 313 313 313 314 315 317 320
332 332 332 332 332 332 331 332 332 333 333 333 333 334 332 327 322 320 318 316 315 314 312 311 310 309 307 307 307 307 307 308
340 340 336 333 333 332 332 333 334 333 333 334 334 332 328 324 319 318 318 317 315 312 310 307 306 306 306 306 306 306 306 306
343 343 339 334 333 333 333 334 334 334 334 334 333 328 323 321 322 320 319 317 313 308 306 306 306 306 306 306 305 305 305 306
343 342 337 334 333 334 334 334 334 335 334 332 329 324 321 322 322 320 316 314 310 306 306 306 306 306 305 305 304 305 305 306
342 341 337 334 335 335 334 334 335 334 331 329 325 321 322 322 321 319 315 312 307 306 306 306 306 305 305 305 306 308 310 312
342 341 338 335 334 334 334 335 334 332 330 326 322 319 322 322 320 317 313 309 306 306 306 306 305 305 306 306 309 312 313 314
343 341 339 337 336 335 334 335 333 332 328 324 319 320 323 322 319 314 310 306 306 306 306 305 306 306 307 310 312 313 313 313
343 342 340 339 338 335 332 331 332 330 327 323 318 318 319 318 313 309 305 305 305 305 305 305 305 307 309 311 312 311 312 311
343 342 339 337 337 336 334 331 330 328 324 321 316 314 314 312 309 306 305 305 305 305 305 304 304 307 309 310 310 308 307 305
342 340 337 337 336 335 334 332 331 329 325 321 313 310 309 308 306 305 304 305 305 305 304 304 303 303 305 308 308 309 306 302
340 338 338 337 335 334 333 332 330 327 322 312 309 307 306 305 305 305 304 304 304 304 304 304 305 303 302 305 308 303 307 306
330 329 329 330 330 327 327 327 324 321 314 312 309 307 305 305 305 304 304 303 302 302 302 303 303 303 302 301 299 300 301 305
325 322 322 322 321 321 321 320 318 315 314 312 309 307 305 304 304 304 303 303 302 301 301 301 301 301 300 299 298 297 298 299
322 321 318 316 317 315 317 316 315 314 310 310 312 311 307 303 303 302 302 301 300 300 300 300 299 299 298 297 296 296 296 295